Weather History for Rawlins, WY

Change the Weather History Date:

Monday, May 27, 2013

  Actual Average Record
Temperature  
Mean Temperature 57 °F 53 °F  
Max Temperature 72 °F 68 °F 83 °F (1969)
Min Temperature 41 °F 38 °F 28 °F (1952)
Degree Days  
Heating Degree Days 8 12  
Month to date heating degree days 367 437  
Since 1 July heating degree days 7846 8156  
Cooling Degree Days 0 0  
Month to date cooling degree days 1 0  
Year to date cooling degree days 1 0  
Growing Degree Days 6 (Base 50)    
Moisture  
Dew Point 20 °F    
Average Humidity 25    
Maximum Humidity 38    
Minimum Humidity 12    
Precipitation  
Precipitation T in 0.05 in 1.06 in (1992)
Month to date precipitation 0.42 1.22  
Year to date precipitation 2.01 3.73  
Sea Level Pressure  
Sea Level Pressure 29.70 in    
Wind  
Wind Speed 13 mph (WSW)    
Max Wind Speed 32 mph    
Max Gust Speed 38 mph    
Visibility 10 miles    
Events      
T = Trace of Precipitation, MM = Missing Value Source: NWS Daily Summary

Daily Weather History Graph

Daily Weather History Graph

Search for Another Location

Airport:

Trip Planner

Search our weather history database for the weather conditions in past years. The results will help you decide how hot, cold, wet, or windy it might be!

Date:

Astronomy

May. 27, 2013 Rise Set
Actual Time 5:38 AM MDT 8:33 PM MDT
Civil Twilight 5:05 AM MDT 9:06 PM MDT
Nautical Twilight 4:24 AM MDT 9:48 PM MDT
Astronomical Twilight 3:35 AM MDT 10:37 PM MDT
Moon 11:13 PM MDT (5/27) 8:20 AM MDT (5/27)
Length of Visible Light 16h 00m
Length of Day
14h 54m
Waning Gibbous, 90% of the Moon is Illuminated
May 27
Waning Gibbous
May 31
Last Quarter
Jun 8
New
Jun 16
First Quarter
Jun 23
Full

Hourly Weather History & Observations

Time (MDT) Temp. Windchill Dew Point Humidity Pressure Visibility Wind Dir Wind Speed Gust Speed Precip Events Conditions
12:53 AM 54.0 °F - 14.0 °F 21% 29.66 in 10.0 mi WSW 10.4 mph - N/A   Clear
1:53 AM 46.0 °F 44.8 °F 15.1 °F 29% 29.68 in 10.0 mi WNW 3.5 mph - N/A   Clear
2:53 AM 48.0 °F - 16.0 °F 28% 29.68 in 10.0 mi South 8.1 mph - N/A   Clear
3:53 AM 45.0 °F 40.6 °F 16.0 °F 31% 29.69 in 10.0 mi SW 8.1 mph - N/A   Clear
4:53 AM 41.0 °F 38.0 °F 17.1 °F 38% 29.71 in 10.0 mi NE 4.6 mph - N/A   Clear
5:53 AM 44.1 °F 40.8 °F 17.1 °F 34% 29.72 in 10.0 mi ENE 5.8 mph - N/A   Clear
6:53 AM 54.0 °F - 17.1 °F 23% 29.70 in 10.0 mi WSW 6.9 mph - N/A   Clear
7:53 AM 53.1 °F - 21.0 °F 29% 29.73 in 10.0 mi WSW 12.7 mph - N/A   Clear
8:53 AM 62.1 °F - 25.0 °F 24% 29.71 in 10.0 mi WNW 11.5 mph 17.3 mph N/A   Clear
9:53 AM 63.0 °F - 27.0 °F 26% 29.72 in 10.0 mi West 16.1 mph 25.3 mph N/A   Partly Cloudy
10:53 AM 66.0 °F - 27.0 °F 23% 29.73 in 10.0 mi West 21.9 mph 28.8 mph N/A   Clear
11:53 AM 69.1 °F - 25.0 °F 19% 29.71 in 10.0 mi WSW 18.4 mph 29.9 mph N/A   Scattered Clouds
12:53 PM 70.0 °F - 16.0 °F 13% 29.69 in 10.0 mi SW 24.2 mph 36.8 mph N/A   Partly Cloudy
1:53 PM 70.0 °F - 19.0 °F 14% 29.71 in 10.0 mi WSW 19.6 mph 34.5 mph N/A   Clear
2:53 PM 71.1 °F - 21.0 °F 15% 29.68 in 10.0 mi WSW 17.3 mph 26.5 mph N/A   Scattered Clouds
3:53 PM 66.0 °F - 25.0 °F 21% 29.72 in 10.0 mi SW 12.7 mph 29.9 mph N/A   Overcast
4:53 PM 66.0 °F - 26.1 °F 22% 29.72 in 10.0 mi SSW 19.6 mph 35.7 mph N/A   Mostly Cloudy
5:00 PM 64.4 °F - 26.6 °F 24% 29.91 in 10.0 mi SSW 17.3 mph 32.2 mph N/A   Mostly Cloudy
5:53 PM 68.0 °F - 24.1 °F 19% 29.68 in 10.0 mi SSW 15.0 mph - 0.00 in   Mostly Cloudy
6:53 PM 68.0 °F - 17.1 °F 14% 29.62 in 10.0 mi West 18.4 mph 23.0 mph N/A   Mostly Cloudy
7:53 PM 64.0 °F - 16.0 °F 16% 29.65 in 10.0 mi WNW 19.6 mph 26.5 mph N/A   Clear
8:53 PM 57.9 °F - 15.1 °F 19% 29.66 in 10.0 mi WNW 9.2 mph - N/A   Clear
9:53 PM 52.0 °F - 16.0 °F 24% 29.68 in 10.0 mi WNW 12.7 mph - N/A   Clear
10:53 PM 54.0 °F - 15.1 °F 22% 29.67 in 10.0 mi West 11.5 mph - N/A   Clear
11:53 PM 48.9 °F - 16.0 °F 27% 29.69 in 10.0 mi NW 4.6 mph - N/A   Clear